Preview of NWS' New Version of Forecast
This preview is not operational and should not be used for support decisions.

Terminal Aerodrome Forecast (TAF)

Issued by National Weather Service (NWS)

                            
000
FTAK31 PAFC 141142
TAFADL
TAF
PADL 141142Z 1412/1512 VRB06KT P6SM SKC
     FM150800 VRB06KT P6SM -RA SCT025 OVC035=